Trine Charlotte — LMRY — position and weather

sailwx.info

Track history (hours):
 
Tides and Currents Weather Stations Pressure Air Temp Water Temp Dewpoint Dewpoint Depression Visibility Wind Speed Wind Dir Waves Ship Positions

Trine Charlotte

Last reported at 2014-Oct-21 01:32 UTC. Time now 2014-Oct-21 02:25 UTC.
Position N 69°42' E 019°01'.

Length 66 m; draft 4.6 m.

Type: . MMSI: 257233000.

Date/timePositionNaut miles runAvg speedWind from/ knotsBaromVisibWave heightAir tempDewpointWater temp
2014-Oct-21 01:32N 69°42' E 019°01'0 0.0
2014-Oct-21 00:33N 69°42' E 019°01'0 0.0
2014-Oct-20 23:33N 69°42' E 019°01'0 0.0
2014-Oct-20 22:33N 69°42' E 019°01'3 3.3
2014-Oct-20 21:33N 69°45' E 019°06'  
2014-Oct-15 17:33N 69°42' E 019°02'0 0.1
2014-Oct-15 10:07N 69°42' E 019°01'2 4.2
2014-Oct-15 09:33N 69°40' E 018°58'0 0.3
2014-Oct-15 08:33N 69°40' E 018°58'0 0.0
2014-Oct-15 07:33N 69°40' E 018°58'0 0.0
2014-Oct-15 06:33N 69°40' E 018°58'0 0.0
2014-Oct-15 05:33N 69°40' E 018°58'0 0.0
2014-Oct-15 04:33N 69°40' E 018°58'0 0.0
2014-Oct-15 03:32N 69°40' E 018°58'0 0.0
2014-Oct-15 01:13N 69°40' E 018°58'0 0.0
2014-Oct-15 00:33N 69°40' E 018°58'0 0.0
2014-Oct-14 23:33N 69°40' E 018°58'0 0.0
2014-Oct-14 22:33N 69°40' E 018°58'1 1.1
2014-Oct-14 21:33N 69°40' E 019°00'  
Track history (hours):
 
Tides and Currents Weather Stations Pressure Air Temp Water Temp Dewpoint Dewpoint Depression Visibility Wind Speed Wind Dir Waves Ship Positions

Trine Charlotte

Last reported at 2014-Oct-21 01:32 UTC. Time now 2014-Oct-21 02:25 UTC.
Position N 69°42' E 019°01'.

Length 66 m; draft 4.6 m.

Type: . MMSI: 257233000.

Date/timePositionNaut miles runAvg speedWind from/ knotsBaromVisibWave heightAir tempDewpointWater temp
2014-Oct-21 01:32N 69°42' E 019°01'0 0.0
2014-Oct-21 00:33N 69°42' E 019°01'0 0.0
2014-Oct-20 23:33N 69°42' E 019°01'0 0.0
2014-Oct-20 22:33N 69°42' E 019°01'3 3.3
2014-Oct-20 21:33N 69°45' E 019°06'  
2014-Oct-15 17:33N 69°42' E 019°02'0 0.1
2014-Oct-15 10:07N 69°42' E 019°01'2 4.2
2014-Oct-15 09:33N 69°40' E 018°58'0 0.3
2014-Oct-15 08:33N 69°40' E 018°58'0 0.0
2014-Oct-15 07:33N 69°40' E 018°58'0 0.0
2014-Oct-15 06:33N 69°40' E 018°58'0 0.0
2014-Oct-15 05:33N 69°40' E 018°58'0 0.0
2014-Oct-15 04:33N 69°40' E 018°58'0 0.0
2014-Oct-15 03:32N 69°40' E 018°58'0 0.0
2014-Oct-15 01:13N 69°40' E 018°58'0 0.0
2014-Oct-15 00:33N 69°40' E 018°58'0 0.0
2014-Oct-14 23:33N 69°40' E 018°58'0 0.0
2014-Oct-14 22:33N 69°40' E 018°58'1 1.1
2014-Oct-14 21:33N 69°40' E 019°00'  

Dump ship's entire track history